SUNNYSIDE Weather Reports


time (UTC)temp
C
wind
direction
speed
KPH
gust
KPH
rain 1hr
cm
rain 24hr
cm
rain mn
cm
humidity
%
barometer
mb
20260906085059 15 140 0.0 0.0 0.00 0.61 0.00 68 986.5
20260906084559 15 140 0.0 1.6 0.00 0.61 0.00 69 986.4
20260906084058 15 140 0.0 1.6 0.00 0.61 0.00 69 986.4
20260906083602 15 140 0.0 3.2 0.00 0.61 0.00 69 986.3
20260906083100 15 140 0.0 4.8 0.00 0.61 0.00 69 986.2
20260906082558 15 136 0.0 3.2 0.00 0.61 0.00 69 986.3
20260906082058 15 136 0.0 0.0 0.00 0.61 0.00 69 986.2
20260906081557 15 136 0.0 0.0 0.00 0.61 0.00 68 986.1
20260906081101 15 136 0.0 0.0 0.00 0.61 0.00 69 986.0
20260906080600 15 136 0.0 0.0 0.00 0.61 0.00 68 986.1
20260906075554 15 136 0.0 3.2 0.00 0.61 0.00 68 986.0
20260906075053 16 136 0.0 3.2 0.00 0.61 0.00 68 986.0
20260906074554 16 136 0.0 0.0 0.00 0.61 0.00 68 986.1
20260906074052 16 136 0.0 0.0 0.00 0.61 0.00 68 986.2
20260906073553 16 136 0.0 0.0 0.00 0.61 0.00 68 986.2
20260906073054 16 136 0.0 0.0 0.00 0.61 0.00 68 986.1
20260906072552 16 136 0.0 0.0 0.00 0.61 0.00 68 986.1
20260906072052 16 136 0.0 0.0 0.00 0.61 0.00 68 986.2
20260906071554 16 136 0.0 0.0 0.00 0.61 0.00 68 986.3
20260906071050 16 136 0.0 0.0 0.00 0.61 0.00 68 986.3
20260906070550 16 136 0.0 1.6 0.00 0.61 0.00 68 986.3
20260906070056 16 136 0.0 1.6 0.00 0.61 0.00 68 986.3
20260906065549 16 136 0.0 0.0 0.00 0.61 0.00 68 986.4
20260906065049 16 136 0.0 1.6 0.00 0.61 0.00 68 986.3
20260906064552 16 136 0.0 1.6 0.00 0.61 0.00 68 986.2
20260906064048 16 136 0.0 1.6 0.00 0.61 0.00 68 986.4
20260906063548 16 136 0.0 1.6 0.00 0.61 0.00 68 986.3
20260906063049 16 136 0.0 0.0 0.00 0.61 0.00 68 986.3
20260906062546 16 136 0.0 0.0 0.00 0.61 0.00 68 986.3
20260906062046 16 136 0.0 0.0 0.00 0.61 0.00 68 986.2
20260906061545 16 136 0.0 0.0 0.00 0.61 0.00 68 986.2
20260906061045 16 136 0.0 0.0 0.00 0.61 0.00 67 986.3
20260906060545 16 136 0.0 0.0 0.00 0.61 0.00 67 986.3
20260906060045 16 136 0.0 0.0 0.00 0.61 0.00 67 986.3
20260906055545 16 136 0.0 0.0 0.00 0.61 0.00 67 986.3
20260906055044 16 136 0.0 0.0 0.00 0.61 0.00 67 986.3
20260906054557 16 136 0.0 0.0 0.00 0.61 0.00 67 986.2
20260906054043 16 136 0.0 0.0 0.00 0.61 0.00 67 986.1
20260906053543 16 136 0.0 0.0 0.00 0.61 0.00 67 986.2
20260906053042 16 136 0.0 0.0 0.00 0.61 0.00 67 986.3
20260906052542 16 136 0.0 0.0 0.00 0.61 0.00 67 986.3
20260906052041 16 136 0.0 0.0 0.00 0.61 0.00 66 986.2
20260906051602 16 136 0.0 0.0 0.00 0.61 0.00 66 986.3
20260906051040 16 136 0.0 1.6 0.00 0.61 0.00 66 986.2
20260906050543 16 136 0.0 1.6 0.00 0.61 0.00 66 986.3
20260906050044 17 136 0.0 1.6 0.00 0.61 0.00 66 986.2
20260906045541 17 136 0.0 0.0 0.00 0.61 0.61 65 986.2
20260906045041 17 136 0.0 0.0 0.00 0.61 0.61 65 986.1
20260906044548 17 136 0.0 1.6 0.00 0.61 0.61 65 986.2
20260906044037 17 136 0.0 1.6 0.00 0.61 0.61 64 986.3
20260906043537 17 136 0.0 1.6 0.00 0.61 0.61 64 986.3
20260906043038 17 136 0.0 4.8 0.00 0.61 0.61 65 986.4
20260906042537 17 136 1.6 4.8 0.00 0.61 0.61 65 986.3
20260906042041 17 150 1.6 4.8 0.00 0.61 0.61 65 986.3
20260906041537 17 139 0.0 3.2 0.00 0.61 0.61 65 986.5
20260906041038 17 139 0.0 3.2 0.00 0.61 0.61 64 986.5
20260906040537 17 139 0.0 1.6 0.00 0.61 0.61 64 986.4
20260906040110 18 139 0.0 1.6 0.00 0.61 0.61 63 986.4
20260906035537 18 139 0.0 1.6 0.00 0.61 0.61 63 986.4
20260906035036 18 139 0.0 1.6 0.00 0.61 0.61 63 986.4
20260906034536 18 139 0.0 3.2 0.00 0.61 0.61 63 986.3
20260906034036 18 139 0.0 6.4 0.00 0.61 0.61 63 986.3
20260906033536 18 139 1.6 6.4 0.00 0.61 0.61 63 986.3
20260906033048 18 148 0.0 3.2 0.00 0.61 0.61 63 986.3
20260906032539 19 148 0.0 4.8 0.00 0.61 0.61 63 986.2
20260906032035 19 148 0.0 6.4 0.00 0.61 0.61 63 986.2
20260906031536 19 146 0.0 1.6 0.00 0.61 0.61 63 986.1
20260906031037 19 146 0.0 3.2 0.00 0.61 0.61 63 986.1
20260906030535 19 146 1.6 8.0 0.00 0.61 0.61 63 986.0
20260906030035 19 146 1.6 8.0 0.00 0.61 0.61 64 986.1
20260906025534 19 166 1.6 6.4 0.00 0.61 0.61 64 986.2
20260906025034 19 193 0.0 0.0 0.00 0.61 0.61 64 986.2
20260906024534 19 194 0.0 0.0 0.00 0.61 0.61 64 986.2
20260906024034 19 194 0.0 0.0 0.00 0.61 0.61 63 986.2
20260906023534 19 194 0.0 0.0 0.00 0.61 0.61 63 986.2
20260906023034 19 194 0.0 0.0 0.00 0.61 0.61 63 986.0
20260906022534 19 194 0.0 0.0 0.00 0.61 0.61 64 986.2
20260906022034 19 194 0.0 0.0 0.00 0.61 0.61 63 986.0
20260906021534 19 194 0.0 0.0 0.00 0.61 0.61 64 986.0
20260906021033 19 194 0.0 0.0 0.00 0.61 0.61 63 985.9
20260906020534 19 194 0.0 0.0 0.00 0.61 0.61 63 985.9
20260906020035 19 194 0.0 0.0 0.00 0.61 0.61 62 985.9
20260906015533 19 194 0.0 0.0 0.00 0.61 0.61 61 985.9
20260906015033 20 194 0.0 0.0 0.00 0.61 0.61 61 985.9
20260906014533 20 194 0.0 0.0 0.00 0.61 0.61 60 985.9
20260906014032 20 194 0.0 0.0 0.00 0.61 0.61 60 985.7
20260906013532 20 194 0.0 0.0 0.00 0.61 0.61 59 985.6
20260906013034 21 194 0.0 0.0 0.00 0.61 0.61 58 985.6
20260906012532 21 194 0.0 0.0 0.00 0.61 0.61 57 985.5
20260906012032 21 194 0.0 0.0 0.00 0.61 0.61 57 985.5
20260906011532 22 194 0.0 0.0 0.00 0.61 0.61 57 985.3
20260906011031 22 194 0.0 0.0 0.00 0.61 0.61 57 985.3
20260906010531 22 194 0.0 0.0 0.00 0.61 0.61 57 985.4
20260906010032 23 194 0.0 0.0 0.00 0.61 0.61 57 985.4
20260906005531 23 194 0.0 0.0 0.00 0.61 0.61 57 985.4
20260906005031 23 194 0.0 0.0 0.00 0.61 0.61 56 985.4
20260906004530 23 194 0.0 0.0 0.00 0.61 0.61 56 985.3
20260906004031 24 194 0.0 1.6 0.00 0.61 0.61 55 985.2
20260906003535 25 194 0.0 1.6 0.00 0.61 0.61 55 984.9
20260906003030 25 194 0.0 3.2 0.00 0.61 0.61 55 985.0
20260906002532 25 194 0.0 4.8 0.00 0.61 0.61 55 984.8
20260906002030 25 194 0.0 6.4 0.00 0.61 0.61 55 984.9
20260906001533 25 182 0.0 6.4 0.00 0.61 0.61 54 984.9
20260906001030 25 188 0.0 6.4 0.00 0.61 0.61 54 984.9
20260906000530 25 184 0.0 0.0 0.00 0.61 0.61 54 984.8
20260906000031 24 184 0.0 0.0 0.00 0.61 0.61 55 984.8
20260905235529 24 184 0.0 0.0 0.00 0.61 0.61 55 984.6
20260905235030 23 184 0.0 1.6 0.00 0.61 0.61 55 984.7
20260905234529 23 184 0.0 1.6 0.00 0.61 0.61 55 984.7
20260905234029 23 184 0.0 0.0 0.00 0.61 0.61 55 984.7
20260905233529 23 184 0.0 0.0 0.00 0.61 0.61 55 984.6
20260905233029 23 184 0.0 1.6 0.00 0.61 0.61 55 984.6
20260905232529 23 184 0.0 4.8 0.00 0.61 0.61 55 984.5
20260905232029 23 184 0.0 4.8 0.00 0.61 0.61 55 984.5
20260905231529 23 184 0.0 6.4 0.00 0.61 0.61 55 984.5
20260905231028 24 182 3.2 6.4 0.00 0.61 0.61 55 984.5
20260905230528 24 202 0.0 8.0 0.00 0.61 0.61 54 984.4
20260905230029 24 203 1.6 12.9 0.00 0.61 0.61 54 984.3
20260905225031 25 186 1.6 8.0 0.00 0.61 0.61 52 984.2
20260905224605 25 147 1.6 8.0 0.00 0.61 0.61 52 984.1
20260905224031 25 149 1.6 14.5 0.00 0.61 0.61 51 984.1
20260905223531 25 96 8.0 17.7 0.00 0.61 0.61 50 984.3
20260905223031 26 150 3.2 11.3 0.00 0.61 0.61 49 984.3
20260905222530 26 123 3.2 11.3 0.00 0.61 0.61 49 984.2
20260905222030 26 152 6.4 11.3 0.00 0.61 0.61 48 984.2
20260905221530 26 130 4.8 16.1 0.00 0.61 0.61 48 984.4
20260905221032 26 184 8.0 16.1 0.00 0.61 0.61 48 984.1
20260905220529 26 173 8.0 16.1 0.00 0.61 0.61 49 984.2
20260905220029 26 113 4.8 17.7 0.00 0.61 0.61 51 984.1
20260905215529 26 119 9.7 19.3 0.00 0.61 0.61 49 984.0
20260905215030 26 138 6.4 19.3 0.00 0.61 0.61 50 984.0
20260905214528 26 110 9.7 19.3 0.00 0.61 0.61 49 984.1
20260905214027 26 121 8.0 17.7 0.00 0.61 0.61 49 984.1
20260905213526 25 123 8.0 20.9 0.00 0.61 0.61 43 984.2
20260905213026 25 110 9.7 20.9 0.00 0.61 0.61 44 984.2
20260905212530 25 153 9.7 17.7 0.00 0.61 0.61 44 984.2
20260905212024 25 131 8.0 22.5 0.00 0.61 0.61 44 984.3
20260905211538 25 122 9.7 22.5 0.00 0.61 0.61 45 984.3
20260905211022 25 142 12.9 22.5 0.00 0.61 0.61 46 984.4
20260905210522 25 129 14.5 22.5 0.00 0.61 0.61 46 984.4
20260905210034 25 134 14.5 24.1 0.00 0.61 0.61 46 984.4
20260905205521 25 113 11.3 24.1 0.00 0.61 0.61 46 984.4
20260905205019 25 101 11.3 22.5 0.00 0.61 0.61 46 984.4
20260905204520 25 155 9.7 27.4 0.00 0.61 0.61 47 984.4
20260905204019 25 141 12.9 22.5 0.00 0.61 0.61 48 984.5
20260905203517 25 169 16.1 20.9 0.00 0.61 0.61 48 984.4
20260905203017 24 129 11.3 20.9 0.00 0.61 0.61 48 984.5
20260905202517 24 203 11.3 22.5 0.00 0.61 0.61 50 984.5
20260905202014 24 109 12.9 22.5 0.00 0.61 0.61 51 984.7
20260905201513 24 103 12.9 22.5 0.00 0.61 0.61 52 984.9
20260905201012 23 109 14.5 22.5 0.00 0.61 0.61 52 984.8
20260905200516 23 103 12.9 20.9 0.00 0.61 0.61 52 984.7
20260905200021 23 174 8.0 17.7 0.00 0.61 0.61 52 984.8
20260905195512 23 157 9.7 19.3 0.00 0.61 0.61 53 984.8
20260905195008 23 360 6.4 19.3 0.00 0.61 0.61 54 984.6
20260905194507 23 101 11.3 19.3 0.00 0.61 0.61 56 984.7
20260905194006 23 101 9.7 17.7 0.00 0.61 0.61 57 984.6
20260905193505 22 127 9.7 17.7 0.00 0.61 0.61 58 984.7
20260905193003 22 121 8.0 17.7 0.00 0.61 0.61 58 984.6
20260905192502 22 120 8.0 19.3 0.00 0.61 0.61 58 984.5
20260905192002 22 184 4.8 17.7 0.00 0.61 0.61 59 984.5
20260905191607 22 98 8.0 20.9 0.00 0.61 0.61 59 984.4
20260905191100 22 88 11.3 20.9 0.00 0.61 0.61 59 984.4
20260905190600 22 82 11.3 22.5 0.00 0.61 0.61 60 984.4
20260905190103 22 176 14.5 22.5 0.00 0.61 0.61 60 984.5
20260905185556 22 107 14.5 20.9 0.00 0.61 0.61 60 984.6
20260905185055 21 98 9.7 17.7 0.00 0.61 0.61 62 984.6
20260905184559 21 103 4.8 14.5 0.00 0.61 0.61 63 984.7
20260905184052 21 148 6.4 14.5 0.00 0.61 0.61 63 984.8
20260905183552 20 101 4.8 14.5 0.00 0.61 0.61 64 984.8
20260905183051 20 103 4.8 12.9 0.00 0.61 0.61 65 984.8
20260905182549 20 132 4.8 14.5 0.00 0.61 0.61 65 984.9
20260905182048 20 99 3.2 14.5 0.00 0.61 0.61 66 985.0
20260905181548 20 86 1.6 14.5 0.00 0.61 0.61 67 984.9
20260905181046 19 145 4.8 14.5 0.00 0.61 0.61 67 985.0
20260905180547 19 121 3.2 14.5 0.00 0.61 0.61 67 984.9
20260905180052 19 74 4.8 14.5 0.00 0.61 0.61 67 985.0
20260905175543 18 67 3.2 11.3 0.00 0.61 0.61 67 985.1
20260905175041 18 55 3.2 11.3 0.00 0.61 0.61 68 985.0
20260905174541 18 107 3.2 9.7 0.00 0.61 0.61 68 985.0
20260905174043 18 63 3.2 14.5 0.00 0.61 0.61 68 985.1
20260905173541 18 76 4.8 14.5 0.00 0.61 0.61 67 985.2
20260905173101 18 75 1.6 14.5 0.00 0.61 0.61 67 985.2
20260905172541 18 99 4.8 12.9 0.00 0.61 0.61 67 985.0
20260905172042 18 32 1.6 12.9 0.00 0.61 0.61 67 984.9
20260905171541 18 107 1.6 9.7 0.00 0.61 0.61 67 985.0
20260905171042 18 60 3.2 12.9 0.00 0.61 0.61 67 985.2
20260905170541 18 57 6.4 12.9 0.00 0.61 0.61 67 985.3
20260905170044 19 103 4.8 9.7 0.00 0.61 0.61 67 985.5
20260905165540 19 123 1.6 8.0 0.00 0.61 0.61 67 985.6
20260905165039 19 104 1.6 8.0 0.00 0.61 0.61 67 985.4
20260905164539 19 140 1.6 9.7 0.00 0.61 0.61 68 985.4
20260905164040 19 67 3.2 9.7 0.00 0.61 0.61 67 985.2
20260905163540 19 49 1.6 8.0 0.00 0.61 0.61 68 985.1
20260905163038 19 151 0.0 9.7 0.00 0.61 0.61 68 985.0
20260905162537 19 60 3.2 9.7 0.00 0.61 0.61 68 985.1
20260905162036 19 42 0.0 6.4 0.00 0.61 0.61 68 985.2
20260905161546 18 42 0.0 6.4 0.00 0.61 0.61 68 985.3
20260905161035 18 96 0.0 3.2 0.00 0.61 0.61 68 985.1
20260905160536 18 88 0.0 3.2 0.00 0.61 0.61 68 985.0
20260905160034 18 76 0.0 3.2 0.00 0.61 0.61 68 984.8
20260905155535 18 82 0.0 4.8 0.00 0.61 0.61 68 984.5
20260905155033 18 67 0.0 4.8 0.00 0.61 0.61 68 984.9
20260905154533 18 65 0.0 4.8 0.03 0.61 0.61 68 984.8
20260905154033 18 107 0.0 14.5 0.03 0.61 0.61 68 984.9
20260905153532 18 105 3.2 14.5 0.03 0.61 0.61 68 984.9
20260905153033 18 171 6.4 14.5 0.03 0.61 0.61 68 984.5
20260905152533 18 153 4.8 17.7 0.03 0.61 0.61 68 984.3
20260905152033 18 125 9.7 19.3 0.05 0.61 0.61 68 984.3
20260905151532 18 128 9.7 49.9 0.08 0.61 0.61 70 984.7
20260905151030 18 146 9.7 49.9 0.15 0.61 0.61 70 984.2
20260905150534 18 120 4.8 24.1 0.20 0.61 0.61 70 984.8
20260905150030 18 22 3.2 25.7 0.28 0.61 0.61 70 985.0
20260905145530 17 345 9.7 19.3 0.33 0.61 0.61 70 984.4
20260905145025 17 52 6.4 33.8 0.36 0.58 0.58 70 983.4
20260905144525 17 88 12.9 40.2 0.38 0.58 0.58 70 981.9
20260905144023 16 34 16.1 40.2 0.41 0.58 0.58 70 984.0
20260905143521 16 92 19.3 30.6 0.43 0.58 0.58 70 984.4
20260905143021 16 360 19.3 30.6 0.46 0.58 0.58 70 985.0
20260905142520 16 89 16.1 25.7 0.46 0.58 0.58 70 985.9
20260905142020 16 123 8.0 32.2 0.46 0.56 0.56 70 985.9
20260905141520 16 82 16.1 32.2 0.43 0.53 0.53 70 985.6
20260905141022 16 106 9.7 14.5 0.36 0.46 0.46 70 987.4
20260905140523 16 145 8.0 12.9 0.28 0.38 0.38 70 988.1
20260905140018 15 132 3.2 11.3 0.23 0.33 0.33 70 988.4
20260905135519 15 132 1.6 9.7 0.18 0.25 0.25 70 988.7
20260905135019 15 209 0.0 9.7 0.15 0.23 0.23 70 988.6
20260905134519 15 180 1.6 9.7 0.13 0.20 0.20 70 988.6
20260905134017 15 233 3.2 9.7 0.10 0.18 0.18 70 988.4
20260905133517 15 184 0.0 8.0 0.08 0.15 0.15 70 988.6
20260905133024 15 196 3.2 8.0 0.08 0.13 0.13 70 988.3
20260905132517 15 180 0.0 8.0 0.08 0.13 0.13 70 988.5
20260905132015 15 159 3.2 8.0 0.05 0.10 0.10 70 988.1
20260905131523 15 139 1.6 6.4 0.10 0.10 0.10 70 987.8
20260905131017 15 22 0.0 4.8 0.10 0.10 0.10 70 987.6
20260905130515 15 22 1.6 6.4 0.10 0.10 0.10 70 987.2
20260905130014 15 22 1.6 6.4 0.10 0.10 0.10 70 987.1
20260905125517 15 22 0.0 6.4 0.08 0.08 0.08 70 987.4
20260905125014 15 360 3.2 6.4 0.08 0.08 0.08 70 987.6
20260905124513 15 255 0.0 0.0 0.08 0.08 0.08 70 987.8
20260905124012 15 255 0.0 0.0 0.08 0.08 0.08 70 987.9
20260905123513 15 255 0.0 0.0 0.08 0.08 0.08 70 987.8
20260905123013 15 255 0.0 3.2 0.05 0.05 0.05 70 987.8
20260905122512 15 255 0.0 4.8 0.05 0.05 0.05 70 987.7
20260905122012 15 255 1.6 3.2 0.05 0.05 0.05 70 987.8
20260905121512 15 252 0.0 4.8 0.00 0.00 0.00 70 987.8
20260905121013 15 252 1.6 4.8 0.00 0.00 0.00 70 988.0
20260905120513 15 252 1.6 3.2 0.00 0.00 0.00 70 987.7
20260905120009 15 252 0.0 0.0 0.00 0.00 0.00 70 987.4
20260905115509 15 252 0.0 1.6 0.00 0.00 0.00 70 987.2
20260905115011 15 252 0.0 1.6 0.00 0.00 0.00 70 987.2
20260905114509 14 252 0.0 4.8 0.00 0.00 0.00 70 987.2
20260905114008 14 252 0.0 8.0 0.00 0.00 0.00 70 987.1
20260905113508 14 254 4.8 8.0 0.00 0.00 0.00 70 987.2
20260905113011 15 255 3.2 6.4 0.00 0.00 0.00 70 987.1
20260905112506 14 250 3.2 6.4 0.00 0.00 0.00 70 987.0
20260905112005 14 360 0.0 1.6 0.00 0.00 0.00 70 986.5
20260905111506 14 360 0.0 0.0 0.00 0.00 0.00 70 986.2
20260905111004 14 360 0.0 1.6 0.00 0.00 0.00 70 985.9
20260905110503 14 360 0.0 3.2 0.00 0.00 0.00 70 985.8
20260905110004 14 124 0.0 6.4 0.00 0.00 0.00 70 985.7
20260905105507 14 124 3.2 6.4 0.00 0.00 0.00 70 985.6
20260905105002 14 106 0.0 4.8 0.00 0.00 0.00 70 985.6
20260905104502 14 109 0.0 3.2 0.00 0.00 0.00 70 985.7
20260905104004 14 109 0.0 4.8 0.00 0.00 0.00 70 985.6
20260905103505 14 109 0.0 6.4 0.00 0.00 0.00 70 985.3
20260905103006 14 119 1.6 6.4 0.00 0.00 0.00 70 985.3
20260905102501 14 129 1.6 4.8 0.00 0.00 0.00 70 985.3
20260905102004 14 127 0.0 4.8 0.00 0.00 0.00 70 985.3
20260905101502 14 360 1.6 4.8 0.00 0.00 0.00 70 985.1
20260905101002 14 117 0.0 4.8 0.00 0.00 0.00 70 985.0
20260905100501 14 103 0.0 4.8 0.00 0.00 0.00 69 985.1
20260905100002 14 102 0.0 6.4 0.00 0.00 0.00 70 985.1
20260905095501 14 123 3.2 9.7 0.00 0.00 0.00 70 985.2
20260905095100 14 360 3.2 6.4 0.00 0.00 0.00 70 985.2
20260905094600 14 120 3.2 4.8 0.00 0.00 0.00 70 985.1
20260905094059 14 107 1.6 4.8 0.00 0.00 0.00 70 984.9
20260905093559 14 117 1.6 6.4 0.00 0.00 0.00 70 985.0
20260905093059 14 102 3.2 6.4 0.00 0.00 0.00 70 985.1
20260905092602 14 123 0.0 3.2 0.00 0.00 0.00 70 984.9
20260905092058 14 123 0.0 3.2 0.00 0.00 0.00 70 985.0
20260905091608 14 123 0.0 3.2 0.00 0.00 0.00 70 985.0
20260905091100 14 123 0.0 4.8 0.00 0.00 0.00 69 985.1
20260905090559 14 123 1.6 4.8 0.00 0.00 0.00 69 985.2
20260905090056 14 123 1.6 4.8 0.00 0.00 0.00 69 985.5
20260905085556 14 123 1.6 4.8 0.00 0.00 0.00 69 985.5